[[{"header":{"parameterUnit":"m.s-1","parameterCategory":1,"la1":30.2991,"la2":30.254,"lo1":-89.0895,"lo2":-89.0444,"dy":0.0017,"dx":0.0017,"nx":28,"ny":28,"refTime":"2024-07-27T21:00:00:Z","depth":0,"parameterNumber":2,"parameterNumberName":"U-component_of_WINDS"},"data":[0,0,0,0,0,0,0,0,0,0,0,0,0,0,0,0,0,0,0,0,0,0,0,0,0,0,0,0,0,0,0,0,0,0,0,0,0,0,0,0,0,0,0,0,0,0,0,0,0,0,0,0,0,0,0,0,0,0,0.9422,0.9422,0,0.9474,0.9474,0.9475,0.9465,0.9464,0.9463,0.9462,0.9516,0.9519,0.9521,0,0,0,0,0,0,0,0,0,0,0,0,0,0.9312,0.9314,0.9422,0.9422,0.9423,0.9474,0.9474,0.9475,0.9465,0.9464,0.9463,0.9461,0.9515,0.9518,0.9521,0,0,0,0,0,0,0,0,0,0,0,0,0,0.9362,0.9315,0.9422,0.9424,0.9425,0.9474,0.9475,0.9475,0.9465,0.9464,0.9462,0.9461,0.9515,0.9518,0.9521,0.9572,0,0,0.9532,0.9534,0,0,0,0,0,0,0,0,0.9359,0.9366,0.9423,0.9424,0.9425,0.9461,0.9456,0.9508,0.9465,0.945,0.9462,0.946,0.9499,0.9504,0.9517,0.9574,0.9576,0.9532,0.9535,0.9536,0.9537,0,0,0,0,0,0,0,0.9355,0.9363,0.9442,0.9424,0.9425,0.9422,0.9427,0.9466,0.9482,0.9451,0.945,0.9457,0.9499,0.9513,0.9518,0.9577,0.9532,0.9535,0.9538,0.9539,0.9675,0.9677,0,0,0,0,0,0,0.9351,0.9361,0.9441,0.9444,0.9388,0.9425,0.9431,0.9451,0.9481,0.9485,0.9458,0.9456,0.9508,0.9514,0.952,0.9579,0.9536,0.9539,0.9541,0.9674,0.9676,0.9677,0,0,0,0,0,0,0.9349,0.9358,0.9439,0.9402,0.9412,0.9429,0.9451,0.9453,0.9467,0.9487,0.9489,0.9469,0.9507,0.9515,0.9558,0.9581,0.9541,0.9544,0.9672,0.9674,0.9677,0.9698,0,0,0,0,0,0,0.9346,0.9358,0.9377,0.9403,0.9414,0.9476,0.9452,0.9455,0.9473,0.9471,0.9498,0.9501,0.9507,0.9553,0.9562,0.9585,0.9547,0.967,0.9673,0.9676,0.9696,0.9701,0.9706,0,0,0,0,0,0.9342,0.9382,0.9378,0.9388,0.9439,0.9478,0.9484,0.949,0.9475,0.9494,0.9506,0.95,0.9577,0.9557,0.9567,0.9592,0.9669,0.9672,0.9676,0.9693,0.97,0.9705,0,0,0,0,0,0,0.936,0.9386,0.9382,0.9432,0.9452,0.9476,0.9501,0.9497,0.9523,0.952,0.9526,0.9532,0.9575,0.9588,0.9566,0.964,0.9621,0.9626,0.9631,0.9637,0.9642,0.9638,0.955,0,0,0,0,0,0.937,0.9399,0.942,0.9462,0.9472,0.9485,0.9502,0.9504,0.9526,0.9535,0.955,0.9572,0.9601,0.962,0.9647,0.9697,0.9702,0.9718,0.9723,0.9727,0.9732,0.9757,0.9764,0.9689,0.9689,0.9689,0,0,0.9391,0.9408,0.9427,0.9466,0.9482,0.9512,0.9492,0.9525,0.9547,0.954,0.9581,0.9593,0.9618,0.9663,0.9685,0.9675,0.9754,0.9732,0.9735,0.9737,0.9761,0.9768,0.9775,0.9691,0.9691,0.969,0,0,0.9443,0.946,0.9496,0.9512,0.9536,0.9544,0.9552,0.9576,0.9583,0.9624,0.9619,0.9645,0.9695,0.9711,0.9727,0.9782,0.9777,0.9791,0.9817,0.9842,0.9848,0.9853,0.9871,0.9878,0.9796,0.9796,0.9796,0,0.9466,0.9511,0.9515,0.9547,0.9564,0.9557,0.9593,0.9608,0.9641,0.9652,0.9641,0.9702,0.9718,0.9767,0.978,0.9793,0.9802,0.9788,0.9846,0.9852,0.9857,0.9874,0.9881,0.9797,0.9797,0.9797,0.9797,0,0.9537,0.9567,0.9593,0.9623,0.9643,0.9677,0.9685,0.9704,0.9704,0.9712,0.9753,0.9771,0.9801,0.9813,0.9814,0.9861,0.9855,0.9845,0.9825,0.9865,0.9882,0.9889,0.9799,0.9799,0.9798,0.9798,0,0,0.9604,0.9634,0.9643,0.9656,0.9681,0.9705,0.9737,0.9766,0.9781,0.9804,0.983,0.9871,0.9861,0.9878,0.9881,0.9902,0.9942,0.9889,0.989,0.9897,0.9994,1.0,1.0008,0.9939,0.994,0.9941,0.9991,0,0.9658,0.9716,0.9719,0.9771,0.9798,0.9791,0.9819,0.9837,0.9845,0.9869,0.9878,0.9906,0.9892,0.9902,0.9923,0.9933,0.9962,0.993,0.9963,0.9964,0.9957,1.0017,1.0025,1.0072,0.9998,0.9999,1.0,0,0.973,0.9752,0.9806,0.9825,0.9837,0.9862,0.9887,0.991,0.993,0.9934,0.9952,0.995,0.9982,0.9961,1.0005,0.9983,0.9996,1.0003,1.0005,1.0008,0.9984,1.0021,1.0087,1.0093,1.001,1.001,1.0009,0,0.9772,0.9816,0.9853,0.9864,0.9888,0.9905,0.9916,0.9934,0.995,0.9972,0.9982,1.0007,1.0021,1.0041,1.0045,1.003,1.0089,1.0068,1.0092,1.0092,1.0105,1.0104,1.0173,1.0115,1.0115,1.0115,1.0115,0,0.9832,0.9865,0.9872,0.9895,0.9931,0.9934,0.9969,0.9979,0.9994,1.0018,1.0014,1.0037,1.0042,1.0065,1.0069,1.0103,1.011,1.0114,1.0114,1.0114,1.0113,1.0123,1.012,1.0117,1.0116,1.0116,1.0115,0,0.9885,0.9892,0.9932,0.9949,0.9955,0.998,0.9995,1.0017,1.0023,1.0053,1.0061,1.0071,1.0098,1.0104,1.0137,1.0139,1.018,1.0178,1.0173,1.0173,1.0196,1.0193,1.0273,1.0283,1.0219,1.0219,1.022,0,0.9923,0.9948,0.9968,0.9983,0.9994,1.0019,1.0035,1.0037,1.0054,1.0076,1.0095,1.0121,1.0142,1.0185,1.0195,1.0219,1.0217,1.0243,1.0221,1.0219,1.0216,1.0214,1.0216,1.0248,1.0248,1.0249,1.0249,0,0.9989,0.999,1.0012,1.0035,1.0054,1.0072,1.009,1.0103,1.0108,1.0126,1.0153,1.0169,1.0201,1.0226,1.025,1.026,1.0255,1.0256,1.0263,1.0262,1.0258,1.0259,1.0184,1.0254,1.0254,1.0253,1.0253,1.0253,1.0035,1.0056,1.0072,1.0097,1.011,1.0125,1.0146,1.0154,1.0176,1.0201,1.0201,1.023,1.0247,1.0278,1.0289,1.0311,1.0303,1.0313,1.0316,1.0318,1.0319,1.0254,1.0316,1.0316,1.0316,1.0316,1.0315,0,1.0099,1.0109,1.0131,1.0155,1.0174,1.0166,1.0184,1.0201,1.0226,1.0241,1.0261,1.0291,1.0315,1.0326,1.0349,1.0365,1.0363,1.0371,1.0369,1.0371,1.0326,1.0317,1.0372,1.0372,1.0372,1.0372,1.0372,1.0372,1.0135,1.0169,1.0172,1.0212,1.0221,1.0248,1.0259,1.0273,1.0285,1.0318,1.0337,1.0344,1.0357,1.0381,1.0402,1.0405,1.0413,1.0422,1.0423,1.0381,1.0375,1.0369,1.0361,1.0424,1.0424,1.0467,1.0467,1.0467]},{"header":{"parameterUnit":"m.s-1","parameterCategory":1,"la1":30.2991,"la2":30.254,"lo1":-89.0895,"lo2":-89.0444,"dy":0.0017,"dx":0.0017,"nx":28,"ny":28,"refTime":"2024-07-27T21:00:00:Z","depth":0,"parameterNumber":3,"parameterNumberName":"V-component_of_WINDS"},"data":[0,0,0,0,0,0,0,0,0,0,0,0,0,0,0,0,0,0,0,0,0,0,0,0,0,0,0,0,0,0,0,0,0,0,0,0,0,0,0,0,0,0,0,0,0,0,0,0,0,0,0,0,0,0,0,0,0,0,3.6563,3.6563,0,3.6613,3.6614,3.6614,3.6568,3.6566,3.6564,3.6563,3.6611,3.6614,3.6616,0,0,0,0,0,0,0,0,0,0,0,0,0,3.6422,3.6425,3.6563,3.6563,3.6564,3.6613,3.6614,3.6614,3.6568,3.6566,3.6564,3.6562,3.661,3.6613,3.6617,0,0,0,0,0,0,0,0,0,0,0,0,0,3.6479,3.6426,3.6562,3.6547,3.6546,3.6613,3.6614,3.6614,3.6569,3.6566,3.6563,3.6561,3.6608,3.6613,3.6617,3.6701,0,0,3.6631,3.6633,0,0,0,0,0,0,0,0,3.6475,3.6484,3.6549,3.6548,3.6547,3.6581,3.6581,3.6643,3.657,3.656,3.6563,3.6559,3.6603,3.6608,3.6623,3.6703,3.6705,3.6631,3.6634,3.6636,3.6637,0,0,0,0,0,0,0,3.6471,3.6481,3.6582,3.655,3.6549,3.6536,3.6541,3.6593,3.6596,3.6561,3.6558,3.6564,3.6602,3.6619,3.6624,3.6706,3.6631,3.6635,3.6638,3.664,3.6853,3.6856,0,0,0,0,0,0,3.647,3.6478,3.6581,3.6584,3.6504,3.6541,3.6546,3.6573,3.6596,3.6597,3.6567,3.6562,3.6613,3.6619,3.6625,3.6723,3.6636,3.664,3.6643,3.685,3.6854,3.6857,0,0,0,0,0,0,3.6467,3.6479,3.6579,3.653,3.6542,3.6546,3.6577,3.6576,3.6593,3.66,3.66,3.6584,3.6611,3.6619,3.6682,3.6724,3.6642,3.6646,3.6847,3.6852,3.6856,3.6919,0,0,0,0,0,0,3.6463,3.6479,3.6512,3.6531,3.6545,3.6636,3.6579,3.6579,3.6601,3.6595,3.6616,3.6617,3.6609,3.6675,3.6686,3.6728,3.665,3.6843,3.6849,3.6854,3.6913,3.6925,3.6935,0,0,0,0,0,3.6458,3.6527,3.6514,3.6526,3.6586,3.6639,3.6646,3.6637,3.6605,3.6637,3.6641,3.6616,3.6718,3.6682,3.6694,3.6738,3.684,3.6847,3.6854,3.6908,3.6923,3.6935,0,0,0,0,0,0,3.6511,3.653,3.6515,3.6592,3.6614,3.6631,3.6671,3.6653,3.6684,3.6677,3.6663,3.6668,3.6734,3.6742,3.6703,3.6819,3.6774,3.6783,3.6811,3.6825,3.6835,3.6831,3.6654,0,0,0,0,0,3.6532,3.6575,3.6588,3.6655,3.6667,3.6667,3.669,3.6681,3.6702,3.6711,3.672,3.6741,3.6777,3.6802,3.6836,3.6914,3.6917,3.695,3.6961,3.697,3.6978,3.7018,3.7032,3.6879,3.6879,3.6879,0,0,3.6576,3.6591,3.6618,3.6666,3.6682,3.6724,3.6675,3.6723,3.6753,3.6718,3.6777,3.6785,3.6807,3.6878,3.6909,3.6887,3.7021,3.6979,3.6986,3.6989,3.7026,3.7041,3.7053,3.6884,3.6883,3.6882,0,0,3.6676,3.6693,3.675,3.6767,3.6791,3.6791,3.6805,3.6824,3.6827,3.6888,3.6861,3.6897,3.696,3.6976,3.6993,3.7098,3.7075,3.7109,3.7166,3.7205,3.7217,3.7228,3.7263,3.7276,3.7117,3.7117,3.7118,0,3.6726,3.6791,3.6781,3.683,3.685,3.6821,3.6877,3.6894,3.6928,3.6942,3.6917,3.6995,3.7008,3.708,3.7106,3.7121,3.7134,3.7106,3.7217,3.7227,3.7237,3.727,3.7284,3.7121,3.7121,3.712,3.712,0,3.685,3.6895,3.6937,3.6972,3.6997,3.705,3.7046,3.7073,3.7061,3.7063,3.7123,3.7137,3.7173,3.719,3.7179,3.726,3.7245,3.7219,3.7173,3.7255,3.7286,3.7299,3.7127,3.7125,3.7124,3.7123,0,0,3.6985,3.7013,3.7028,3.7043,3.7068,3.7101,3.7151,3.7187,3.7209,3.7233,3.7273,3.7327,3.7302,3.7321,3.7311,3.7346,3.7425,3.7315,3.7315,3.7333,3.7513,3.7532,3.7547,3.7411,3.7413,3.7415,3.7511,0,3.7084,3.7173,3.7164,3.7247,3.7287,3.7259,3.7302,3.7321,3.7324,3.7356,3.7359,3.7396,3.7362,3.7373,3.7406,3.7409,3.7461,3.7402,3.7446,3.7448,3.744,3.7564,3.7584,3.7674,3.7523,3.7525,3.7527,0,3.7212,3.7242,3.7329,3.7346,3.7362,3.7401,3.7432,3.7464,3.7484,3.7483,3.7504,3.7488,3.7536,3.7491,3.7555,3.7515,3.7533,3.7537,3.754,3.7542,3.7491,3.7568,3.7702,3.7715,3.7546,3.7545,3.7543,0,3.7299,3.7361,3.742,3.7433,3.7455,3.7483,3.7493,3.7511,3.7532,3.7558,3.7571,3.7603,3.762,3.7644,3.7636,3.7604,3.7702,3.7656,3.7701,3.7701,3.7722,3.772,3.7859,3.7736,3.7736,3.7736,3.7735,0,3.741,3.7464,3.7459,3.7495,3.7554,3.7543,3.7601,3.7608,3.7623,3.7659,3.7637,3.767,3.7659,3.7691,3.7686,3.7739,3.7747,3.7746,3.7744,3.7747,3.7747,3.7757,3.775,3.7739,3.7738,3.7738,3.7737,0,3.7517,3.7516,3.7579,3.7594,3.7599,3.7641,3.7654,3.7687,3.7688,3.7733,3.7743,3.7744,3.778,3.7776,3.7817,3.7813,3.7878,3.7869,3.7872,3.7869,3.7913,3.7908,3.8062,3.8081,3.7948,3.7949,3.795,0,3.7587,3.7627,3.7647,3.767,3.7682,3.7719,3.7741,3.7732,3.7754,3.778,3.7809,3.7844,3.7872,3.7932,3.7935,3.7965,3.7956,3.8007,3.796,3.7962,3.7954,3.7951,3.7954,3.8016,3.8018,3.8019,3.802,0,3.771,3.7708,3.774,3.7772,3.7799,3.7823,3.7845,3.7865,3.7857,3.7884,3.7922,3.7943,3.7985,3.8019,3.8048,3.8056,3.8036,3.8035,3.8047,3.805,3.8049,3.8048,3.7895,3.8031,3.803,3.8029,3.8029,3.8028,3.7799,3.7833,3.7852,3.7888,3.7904,3.7925,3.7957,3.7961,3.7993,3.8027,3.8019,3.8061,3.8078,3.8115,3.8126,3.8158,3.8139,3.8156,3.816,3.8164,3.8168,3.8045,3.8163,3.8163,3.8163,3.8163,3.8162,0,3.792,3.793,3.7964,3.7996,3.8024,3.8004,3.8027,3.8051,3.8089,3.8107,3.8134,3.8177,3.821,3.8215,3.8246,3.827,3.8261,3.8278,3.8275,3.8277,3.8185,3.8171,3.8285,3.8285,3.8285,3.8285,3.8285,3.8285,3.7985,3.8041,3.8041,3.8103,3.8113,3.8155,3.8169,3.8188,3.8202,3.825,3.8278,3.8282,3.8294,3.8326,3.8354,3.8355,3.8366,3.8386,3.8383,3.8296,3.8284,3.8272,3.8259,3.8389,3.8389,3.8472,3.8473,3.8474]}]]